F4FAA-12 Weather Reports


time (UTC)temp
C
wind
direction
speed
KPH
gust
KPH
rain 1hr
cm
rain 24hr
cm
rain mn
cm
humidity
%
barometer
mb
20260507212607 14 296 0.0 4.8 0.00 0.00 0.00 59 1017.5
20260507211626 14 295 1.6 9.7 0.03 0.97 0.97 58 1017.4
20260507211303 14 257 4.8 9.7 0.03 0.97 0.97 58 1017.4
20260507210626 14 266 3.2 14.5 0.05 0.97 0.97 58 1017.3
20260507210139 14 286 3.2 9.7 0.05 0.97 0.97 58 1017.3
20260507205721 15 283 1.6 9.7 0.00 0.89 0.97 58 1017.2
20260507205130 15 285 3.2 9.7 0.00 0.89 0.97 58 1017.2
20260507204601 15 286 4.8 8.0 0.00 0.00 0.00 58 1017.2
20260507204252 15 278 3.2 8.0 0.03 0.89 0.97 58 1017.3
20260507203756 15 286 4.8 9.7 0.03 0.89 0.97 58 1017.2
20260507203233 15 286 4.8 9.7 0.03 0.89 0.94 58 1017.1
20260507202745 15 289 1.6 8.0 0.03 0.89 0.94 58 1017.2
20260507202239 15 279 1.6 8.0 0.03 0.89 0.94 58 1017.1
20260507201701 15 306 0.0 8.0 0.03 0.89 0.94 58 1017.0
20260507201215 15 307 3.2 8.0 0.03 0.89 0.94 58 1017.0
20260507200722 15 298 3.2 4.8 0.03 0.89 0.89 58 1016.9
20260507200222 15 283 1.6 4.8 0.03 0.89 0.89 58 1016.9
20260507195736 15 298 1.6 4.8 0.03 0.86 0.89 57 1016.8
20260507195722 15 282 0.0 4.8 0.00 0.86 0.89 57 1016.9
20260507195206 15 309 0.0 4.8 0.03 0.86 0.86 56 1016.8
20260507194219 15 316 0.0 3.2 0.03 0.86 0.86 56 1016.8
20260507193727 16 316 0.0 3.2 0.03 0.86 0.86 55 1016.8
20260507193648 16 327 1.6 3.2 0.03 0.86 0.86 54 1016.7
20260507192739 16 306 0.0 3.2 0.03 0.86 0.86 54 1016.7
20260507192139 16 289 0.0 3.2 0.05 0.86 0.86 54 1016.6
20260507191631 16 292 0.0 3.2 0.05 0.86 0.86 54 1016.7
20260507191610 16 292 0.0 3.2 0.05 0.86 0.86 54 1016.6
20260507190700 16 296 0.0 3.2 0.05 0.86 0.86 54 1016.6
20260507190255 16 289 0.0 3.2 0.10 0.86 0.86 53 1016.5
20260507190211 16 298 0.0 3.2 0.00 0.79 0.86 53 1016.5
20260507185723 17 289 0.0 6.4 0.00 0.79 0.84 52 1016.4
20260507185500 17 288 0.0 6.4 0.00 0.00 0.00 52 1016.3
20260507184118 17 298 0.0 4.8 0.00 0.00 0.00 51 1016.3
20260507183744 17 307 1.6 3.2 0.03 0.79 0.84 51 1016.3
20260507183237 18 313 1.6 3.2 0.03 0.79 0.84 50 1016.3
20260507182709 18 247 0.0 4.8 0.05 0.79 0.84 50 1016.3
20260507182232 18 303 0.0 4.8 0.05 0.79 0.81 50 1016.1
20260507182201 18 245 0.0 4.8 0.05 0.79 0.81 50 1016.2
20260507181128 18 305 1.6 4.8 0.05 0.79 0.81 49 1016.1
20260507180753 19 292 3.2 4.8 0.10 0.79 0.81 49 1016.1
20260507180243 19 298 1.6 3.2 0.10 0.79 0.79 49 1016.1
20260507175708 18 298 1.6 3.2 0.00 0.69 0.79 49 1016.2
20260507175241 18 299 0.0 4.8 0.00 0.69 0.79 50 1016.1
20260507174758 18 290 3.2 4.8 0.03 0.69 0.79 49 1016.0
20260507174719 18 289 0.0 4.8 0.03 0.69 0.76 49 1015.9
20260507173649 18 283 1.6 6.4 0.03 0.69 0.76 48 1015.9
20260507173143 18 266 3.2 6.4 0.03 0.69 0.76 48 1015.9
20260507172710 18 288 1.6 6.4 0.03 0.69 0.71 49 1015.9
20260507172152 18 302 3.2 6.4 0.00 0.00 0.00 47 1015.9
20260507171806 18 282 3.2 6.4 0.05 0.69 0.71 46 1015.9
20260507171047 19 293 0.0 8.0 0.00 0.00 0.00 46 1015.9
20260507170628 20 289 1.6 8.0 0.05 0.69 0.69 46 1015.9
20260507170156 20 272 3.2 6.4 0.05 0.69 0.69 46 1015.8
20260507165754 20 250 1.6 4.8 0.00 0.61 0.69 46 1015.8
20260507165258 20 282 3.2 4.8 0.00 0.61 0.69 47 1015.9
20260507164756 20 272 0.0 6.4 0.00 0.61 0.66 46 1015.7
20260507164606 20 286 1.6 6.4 0.00 0.61 0.66 46 1015.8
20260507163659 20 293 3.2 4.8 0.00 0.61 0.66 45 1015.8
20260507163223 19 286 1.6 4.8 0.00 0.61 0.66 44 1015.7
20260507162658 20 289 3.2 8.0 0.00 0.61 0.66 44 1015.8
20260507162144 20 285 3.2 6.4 0.03 0.61 0.66 45 1015.8
20260507161634 20 292 3.2 11.3 0.03 0.61 0.64 43 1015.8
20260507161246 20 240 3.2 11.3 0.03 0.61 0.64 43 1015.7
20260507160632 20 258 1.6 9.7 0.03 0.61 0.64 44 1015.7
20260507160206 20 231 4.8 8.0 0.03 0.61 0.64 42 1015.8
20260507155752 20 241 4.8 9.7 0.03 0.56 0.61 44 1015.7
20260507155717 20 243 1.6 11.3 0.03 0.56 0.61 43 1015.8
20260507155130 20 235 8.0 17.7 0.03 0.56 0.61 43 1015.8
20260507154222 20 228 3.2 17.7 0.03 0.56 0.61 46 1015.9
20260507153644 20 244 8.0 9.7 0.05 0.56 0.61 45 1015.8
20260507153636 19 248 1.6 14.5 0.05 0.56 0.61 46 1015.8
20260507152651 20 241 4.8 14.5 0.05 0.56 0.61 44 1015.8
20260507152201 20 237 4.8 11.3 0.05 0.56 0.56 46 1015.9
20260507151637 20 219 3.2 11.3 0.05 0.56 0.56 41 1015.8
20260507151131 20 231 3.2 8.0 0.10 0.56 0.56 44 1016.0
20260507150801 20 289 3.2 8.0 0.10 0.56 0.56 45 1016.0
20260507150130 20 237 3.2 8.0 0.10 0.56 0.56 43 1016.0
20260507145635 20 250 3.2 8.0 0.03 0.48 0.53 43 1016.1
20260507145150 20 324 4.8 14.5 0.03 0.48 0.53 42 1016.1
20260507144703 20 245 3.2 14.5 0.03 0.48 0.53 41 1016.1
20260507144155 20 259 3.2 16.1 0.05 0.48 0.51 42 1016.2
20260507144113 20 234 3.2 14.5 0.00 0.00 0.00 41 1016.1
20260507143301 20 241 8.0 19.3 0.05 0.48 0.51 41 1016.2
20260507142655 20 293 4.8 16.1 0.10 0.48 0.51 43 1016.2
20260507142641 20 169 4.8 19.3 0.05 0.48 0.51 41 1016.2
20260507141625 20 288 3.2 17.7 0.10 0.48 0.51 44 1016.2
20260507141148 20 197 9.7 17.7 0.10 0.48 0.48 42 1016.3
20260507140741 20 243 8.0 17.7 0.10 0.48 0.48 41 1016.3
20260507140255 20 245 6.4 16.1 0.10 0.48 0.48 43 1016.4
20260507140200 20 243 4.8 16.1 0.00 0.36 0.46 43 1016.5
20260507135141 20 230 4.8 14.5 0.00 0.36 0.46 41 1016.5
20260507134735 20 199 8.0 14.5 0.00 0.36 0.46 43 1016.6
20260507134250 20 269 3.2 9.7 0.03 0.36 0.46 44 1016.6
20260507133752 20 286 6.4 17.7 0.03 0.36 0.43 45 1016.6
20260507133213 20 281 3.2 17.7 0.03 0.36 0.43 46 1016.7
20260507132728 20 227 4.8 16.1 0.05 0.36 0.43 43 1016.6
20260507132140 20 224 6.4 11.3 0.05 0.36 0.38 46 1016.7
20260507131746 20 234 9.7 16.1 0.05 0.36 0.38 43 1016.7
20260507131709 19 281 6.4 19.3 0.05 0.36 0.38 47 1016.7
20260507130740 20 223 8.0 19.3 0.05 0.36 0.38 46 1016.7
20260507130233 19 238 4.8 14.5 0.05 0.36 0.36 50 1016.6
20260507125706 19 240 4.8 19.3 0.03 0.30 0.36 48 1016.7
20260507125653 19 281 3.2 19.3 0.03 0.30 0.36 48 1016.7
20260507125148 18 238 11.3 20.9 0.05 0.30 0.33 46 1016.8
20260507124050 18 235 14.5 20.9 0.00 0.00 0.00 48 1016.8
20260507123644 18 213 12.9 19.3 0.05 0.30 0.33 48 1016.9
20260507123209 19 255 9.7 19.3 0.05 0.30 0.33 49 1016.8
20260507122726 18 245 9.7 19.3 0.10 0.30 0.30 50 1016.8
20260507122256 18 245 6.4 19.3 0.10 0.30 0.30 50 1016.9
20260507121704 18 226 9.7 16.1 0.10 0.30 0.30 52 1016.9
20260507121133 18 238 3.2 16.1 0.13 0.30 0.30 49 1017.0
20260507120736 18 226 4.8 16.1 0.13 0.30 0.30 50 1017.1
20260507120219 18 303 6.4 11.3 0.13 0.30 0.30 52 1017.1
20260507120134 18 216 6.4 14.5 0.00 0.18 0.28 53 1017.0
20260507115138 18 237 3.2 16.1 0.00 0.18 0.28 52 1017.1
20260507114800 18 275 6.4 16.1 0.00 0.18 0.23 53 1017.1
20260507114134 18 324 6.4 17.7 0.00 0.18 0.23 54 1017.1
20260507113740 18 237 6.4 19.3 0.03 0.18 0.23 54 1017.3
20260507113140 17 219 14.5 19.3 0.03 0.18 0.23 53 1017.3
20260507112738 18 240 9.7 17.7 0.03 0.18 0.20 56 1017.3
20260507112228 17 247 9.7 17.7 0.03 0.18 0.20 55 1017.4
20260507111729 17 295 8.0 14.5 0.03 0.18 0.20 54 1017.5
20260507111134 17 241 4.8 11.3 0.03 0.18 0.18 57 1017.6
20260507110728 17 286 8.0 16.1 0.03 0.18 0.18 56 1017.7
20260507110208 17 224 12.9 9.7 0.03 0.18 0.18 56 1017.7
20260507105737 17 274 6.4 14.5 0.00 0.15 0.18 57 1017.8
20260507105632 17 295 4.8 14.5 0.00 0.15 0.18 57 1017.8
20260507104714 17 272 6.4 14.5 0.00 0.15 0.18 55 1017.8
20260507104235 17 248 6.4 14.5 0.00 0.15 0.18 57 1017.7
20260507103653 16 312 4.8 14.5 0.00 0.15 0.15 58 1017.8
20260507103245 16 271 1.6 16.1 0.00 0.15 0.15 58 1017.9
20260507102720 16 243 8.0 17.7 0.00 0.15 0.15 59 1017.9
20260507102238 16 255 8.0 16.1 0.00 0.15 0.15 58 1017.9
20260507102156 16 248 3.2 17.7 0.00 0.15 0.15 59 1017.8
20260507101145 16 338 9.7 16.1 0.03 0.15 0.15 59 1017.9
20260507100645 15 314 6.4 16.1 0.03 0.15 0.15 59 1018.0
20260507100157 15 286 6.4 17.7 0.00 0.13 0.15 60 1018.0
20260507100145 15 264 4.8 17.7 0.03 0.15 0.15 60 1018.0
20260507095659 15 296 6.4 16.1 0.00 0.13 0.15 60 1018.1
20260507094653 15 295 4.8 17.7 0.00 0.13 0.15 61 1018.1
20260507094127 14 300 9.7 17.7 0.00 0.00 0.00 61 1018.1
20260507093746 14 303 8.0 16.1 0.00 0.13 0.15 61 1018.2
20260507093738 14 286 4.8 16.1 0.00 0.13 0.15 61 1018.2
20260507093212 13 309 6.4 16.1 0.03 0.13 0.15 61 1018.2
20260507092232 14 207 8.0 16.1 0.03 0.13 0.15 62 1018.1
20260507092148 13 289 6.4 16.1 0.03 0.13 0.15 63 1018.1
20260507091220 13 269 4.8 11.3 0.03 0.13 0.13 63 1018.1
20260507090740 13 233 4.8 16.1 0.03 0.13 0.13 64 1018.1
20260507090133 13 299 4.8 14.5 0.03 0.13 0.13 65 1018.2
20260507085702 12 353 6.4 8.0 0.00 0.10 0.13 65 1018.1
20260507085136 12 234 3.2 11.3 0.00 0.10 0.13 66 1018.1
20260507085028 12 261 3.2 11.3 0.00 0.00 0.00 67 1018.1
20260507084050 12 3 0.0 11.3 0.00 0.00 0.00 67 1018.2
20260507083659 11 355 6.4 9.7 0.00 0.10 0.13 68 1018.2
20260507083234 11 32 1.6 8.0 0.00 0.10 0.13 69 1018.3
20260507082525 11 290 0.0 6.4 0.00 0.00 0.00 69 1018.2
20260507082254 11 206 0.0 6.4 0.00 0.10 0.10 69 1018.3
20260507082229 11 264 0.0 6.4 0.00 0.10 0.10 70 1018.3
20260507081259 11 31 0.0 11.3 0.00 0.10 0.10 69 1018.3
20260507080741 11 292 4.8 8.0 0.00 0.10 0.10 69 1018.3
20260507080130 11 306 3.2 14.5 0.00 0.10 0.10 70 1018.5
20260507075627 11 316 3.2 9.7 0.00 0.10 0.10 71 1018.3
20260507075246 11 348 1.6 9.7 0.00 0.10 0.10 72 1018.3
20260507074748 11 348 3.2 6.4 0.03 0.10 0.10 73 1018.2
20260507074653 11 79 0.0 6.4 0.03 0.10 0.10 77 1018.3
20260507074130 11 302 0.0 6.4 0.03 0.10 0.10 77 1018.2
20260507073230 11 259 0.0 6.4 0.03 0.10 0.10 77 1018.2
20260507072740 11 237 0.0 6.4 0.03 0.10 0.10 77 1018.2
20260507072559 10 307 0.0 6.4 0.03 0.10 0.10 77 1018.2
20260507071748 10 351 3.2 6.4 0.03 0.10 0.10 77 1018.3
20260507071136 10 213 0.0 6.4 0.03 0.10 0.10 77 1018.3
20260507070759 10 240 0.0 6.4 0.03 0.10 0.10 78 1018.3
20260507070238 10 0 0.0 6.4 0.03 0.10 0.10 77 1018.2
20260507065646 10 299 3.2 6.4 0.00 0.05 0.10 77 1018.2
20260507065306 10 257 0.0 6.4 0.00 0.05 0.10 77 1018.1
20260507064734 10 231 1.6 8.0 0.00 0.05 0.05 77 1018.1
20260507064301 10 223 3.2 8.0 0.00 0.05 0.05 77 1018.1
20260507063710 10 243 0.0 6.4 0.00 0.05 0.05 77 1018.0
20260507063647 10 217 1.6 8.0 0.03 0.05 0.05 77 1018.1
20260507063417 10 230 4.8 8.0 0.03 0.05 0.05 77 1018.1
20260507062305 10 220 1.6 8.0 0.03 0.05 0.05 78 1017.9
20260507061702 10 24 0.0 4.8 0.03 0.05 0.05 78 1017.8
20260507061211 9 18 0.0 4.8 0.03 0.05 0.05 78 1017.8
20260507060802 9 130 0.0 1.6 0.03 0.05 0.05 79 1017.9
20260507060203 8 124 0.0 8.0 0.00 0.03 0.05 78 1017.8
20260507060145 9 124 0.0 4.8 0.03 0.05 0.05 79 1017.9
20260507055202 8 124 3.2 8.0 0.00 0.03 0.05 78 1017.8
20260507055153 8 85 0.0 0.0 0.00 0.03 0.05 77 1017.7
20260507054250 8 348 0.0 1.6 0.00 0.03 0.05 77 1017.6
20260507053641 8 347 0.0 3.2 0.00 0.03 0.03 77 1017.5
20260507053109 8 283 3.2 3.2 0.00 0.00 0.00 77 1017.3
20260507052634 8 274 0.0 3.2 0.00 0.03 0.03 77 1017.3
20260507052145 8 293 0.0 3.2 0.00 0.03 0.03 77 1017.3
20260507051651 8 292 0.0 3.2 0.00 0.03 0.03 77 1017.3
20260507051145 8 298 0.0 1.6 0.00 0.03 0.03 77 1017.4
20260507050721 8 298 0.0 0.0 0.00 0.03 0.03 77 1017.4
20260507050215 8 298 0.0 0.0 0.00 0.03 0.03 77 1017.3
20260507045748 8 298 0.0 0.0 0.00 0.03 0.03 77 1017.2
20260507045709 -17 0.0 0.0 0.00 0.00 0.00 1017.2
20260507044736 8 288 0.0 4.8 0.00 0.00 0.00 77 1017.2
20260507044317 -17 3 3.2 0.0 0.00 0.03 0.03 1017.1
20260507043733 -17 0.0 0.0 0.00 0.00 0.00 1017.1
20260507043622 7 348 1.6 1.6 0.00 0.03 0.03 77 1017.1
20260507042630 7 302 0.0 0.0 0.00 0.03 0.03 77 1017.1
20260507042140 8 302 0.0 1.6 0.03 0.03 0.03 77 1017.0
20260507041747 8 302 0.0 1.6 0.03 0.03 0.03 76 1017.0
20260507041159 8 302 0.0 4.8 0.03 0.03 0.03 76 1017.0
20260507040735 8 303 0.0 4.8 0.03 0.03 0.03 76 1016.9
20260507040038 8 353 0.0 6.4 0.00 0.00 0.00 77 1016.9
20260507035735 8 358 1.6 8.0 0.00 0.00 0.03 77 1016.9
20260507035225 8 357 3.2 8.0 0.00 0.00 0.03 77 1016.9
20260507034638 8 118 0.0 1.6 0.00 0.00 0.03 76 1016.9
20260507034205 8 118 0.0 0.0 0.00 0.00 0.03 76 1016.9
20260507033703 8 118 0.0 0.0 0.00 0.00 0.03 75 1016.9
20260507033152 8 118 0.0 3.2 0.00 0.00 0.03 75 1016.8
20260507032642 8 118 0.0 4.8 0.00 0.00 0.03 75 1016.8
20260507032140 8 120 0.0 4.8 0.00 0.00 0.00 75 1016.8
20260507031742 8 120 4.8 4.8 0.00 0.00 0.00 75 1016.8
20260507031659 8 121 0.0 4.8 0.00 0.00 0.00 75 1016.9
20260507030629 8 65 0.0 0.0 0.00 0.00 0.00 75 1016.8
20260507030438 8 63 0.0 0.0 0.00 0.00 0.00 75 1016.8